Regional Weather Roundup
Issued by NWS

Home | Current Version | Previous Version | Graphics & Text | Print | Product List | Glossary On
Versions: 1 2 3 4 5 6 7 8 9 10 11 12 13 14 15 16 17 18 19 20 21 22 23 24 25 26 27 28 29 30 31 32 33 34 35 36 37 38 39 40 41 42 43 44 45 46 47 48 49 50
000
ASUS43 KBIS 010810
RWRND

NORTH DAKOTA REGIONAL WEATHER ROUNDUP
NATIONAL WEATHER SERVICE BISMARCK ND
300 AM CDT SUN MAY 01 2016

NOTE: "FAIR" INDICATES FEW OR NO CLOUDS BELOW 12,000 FEET WITH NO
SIGNIFICANT WEATHER AND/OR OBSTRUCTIONS TO VISIBILITY.


NDZ001>003-009>011-017-010900-
NORTHWEST NORTH DAKOTA

CITY           SKY/WX    TMP DP  RH WIND       PRES   REMARKS
WILLISTON      CLEAR     42  29  59 NW3       30.32F
MINOT          CLEAR     40  27  59 NW5       30.31S
MINOT AFB      CLOUDY    30  26  83 NW6       30.30F
$$

NDZ018>021-031>035-040>046-010900-
SOUTHWEST NORTH DAKOTA

CITY           SKY/WX    TMP DP  RH WIND       PRES   REMARKS
BISMARCK       CLEAR     35  30  82 CALM      30.29S
DICKINSON      CLEAR     32  26  78 NW7       30.28S
GARRISON         N/A     35  29  78 N6        30.30S
HETTINGER ARPT CLEAR     28  24  85 CALM      30.30S
$$

NDZ004>008-012>016-024-026-027-054-010900-
NORTHEAST NORTH DAKOTA

CITY           SKY/WX    TMP DP  RH WIND       PRES   REMARKS
GRAND FORKS    CLEAR     34  27  75 N5        30.26S
GRND FRKS AFB  CLEAR     35  25  66 N6        30.27R
DEVILS LAKE    CLEAR     36  29  75 N7        30.29F
$$

NDZ022-023-025-028>030-036>039-047>053-010900-
SOUTHEAST NORTH DAKOTA

CITY           SKY/WX    TMP DP  RH WIND       PRES   REMARKS
FARGO          CLEAR     40  27  59 CALM      30.24R
JAMESTOWN      CLEAR     35  28  75 N8        30.24S
$$





USA.gov is the U.S. government's official web portal to all federal, state and local government web resources and services.